TimeCST,TemperatureF,Dew PointF,Humidity,Sea Level PressureIn,VisibilityMPH,Wind Direction,Wind SpeedMPH,Gust SpeedMPH,PrecipitationIn,Events,Conditions,WindDirDegrees,DateUTC
12:15 AM,64.6,60.8,88,30.02,10.0,SSE,9.2,-,N/A,,Clear,150,2013-02-04 06:15:00
12:35 AM,64.6,61.0,88,30.01,10.0,SE,9.2,-,N/A,,Clear,140,2013-02-04 06:35:00
12:55 AM,64.8,61.0,88,30.02,10.0,SSE,8.1,-,N/A,,Clear,150,2013-02-04 06:55:00
1:15 AM,64.6,60.8,88,30.00,10.0,SSE,10.4,-,N/A,,Clear,150,2013-02-04 07:15:00
1:35 AM,64.4,60.8,88,30.00,10.0,SSE,8.1,-,N/A,,Clear,150,2013-02-04 07:35:00
1:55 AM,64.2,60.3,87,29.98,10.0,SE,8.1,-,N/A,,Clear,140,2013-02-04 07:55:00
2:15 AM,63.9,60.1,87,29.98,10.0,SE,6.9,-,N/A,,Clear,140,2013-02-04 08:15:00
2:35 AM,64.0,60.1,87,29.97,10.0,SE,5.8,-,N/A,,Clear,140,2013-02-04 08:35:00
2:55 AM,63.9,60.3,88,29.97,10.0,SSE,5.8,-,N/A,,Clear,150,2013-02-04 08:55:00
3:15 AM,63.7,60.3,89,29.97,10.0,SE,4.6,-,N/A,,Clear,140,2013-02-04 09:15:00
4:55 AM,63.0,60.1,90,29.97,10.0,SE,3.5,-,N/A,,Scattered Clouds,130,2013-02-04 10:55:00
5:15 AM,62.6,59.7,90,29.96,10.0,SE,5.8,-,N/A,,Overcast,140,2013-02-04 11:15:00
5:35 AM,61.5,59.2,92,29.95,10.0,SE,6.9,-,N/A,,Overcast,140,2013-02-04 11:35:00
5:55 AM,61.7,59.5,93,29.94,10.0,SE,8.1,-,N/A,,Mostly Cloudy,140,2013-02-04 11:55:00
6:15 AM,62.2,60.3,93,29.95,10.0,SSE,4.6,-,N/A,,Scattered Clouds,150,2013-02-04 12:15:00
6:55 AM,63.7,61.2,91,29.94,10.0,SE,5.8,-,N/A,,Overcast,130,2013-02-04 12:55:00
7:15 AM,63.9,61.7,93,29.94,10.0,SSE,5.8,-,N/A,,Overcast,150,2013-02-04 13:15:00
7:35 AM,64.9,62.2,91,29.94,10.0,SSE,6.9,-,N/A,,Mostly Cloudy,150,2013-02-04 13:35:00
7:55 AM,66.0,62.6,89,29.95,10.0,SSE,6.9,-,N/A,,Overcast,150,2013-02-04 13:55:00
8:15 AM,66.6,63.0,88,29.95,10.0,SSE,6.9,-,N/A,,Overcast,160,2013-02-04 14:15:00
8:35 AM,68.0,63.7,86,29.94,10.0,SSE,9.2,-,N/A,,Overcast,160,2013-02-04 14:35:00
8:55 AM,69.8,64.2,82,29.95,10.0,South,9.2,-,N/A,,Overcast,170,2013-02-04 14:55:00
9:15 AM,70.9,64.4,80,29.95,10.0,SSE,12.7,-,N/A,,Overcast,160,2013-02-04 15:15:00
9:35 AM,72.1,64.2,76,29.94,10.0,South,17.3,23.0,N/A,,Mostly Cloudy,170,2013-02-04 15:35:00
9:55 AM,72.5,63.9,74,29.94,10.0,South,15.0,-,N/A,,Scattered Clouds,170,2013-02-04 15:55:00
10:15 AM,73.4,64.0,72,29.93,10.0,SSE,17.3,21.9,N/A,,Scattered Clouds,160,2013-02-04 16:15:00
10:35 AM,73.8,64.0,72,29.91,10.0,SSE,18.4,25.3,N/A,,Clear,160,2013-02-04 16:35:00
10:55 AM,73.4,64.4,73,29.90,10.0,SSE,20.7,27.6,N/A,,Clear,150,2013-02-04 16:55:00
11:15 AM,74.5,64.6,71,29.94,10.0,South,10.4,16.1,N/A,,Scattered Clouds,180,2013-02-04 17:15:00
11:35 AM,75.6,64.4,68,29.93,10.0,South,15.0,18.4,N/A,,Overcast,170,2013-02-04 17:35:00
11:55 AM,75.0,64.4,69,29.93,10.0,SSW,13.8,-,N/A,,Overcast,200,2013-02-04 17:55:00
12:15 PM,74.5,64.6,71,29.92,10.0,South,12.7,20.7,N/A,,Overcast,180,2013-02-04 18:15:00
12:35 PM,75.7,64.8,69,29.90,10.0,South,15.0,23.0,N/A,,Mostly Cloudy,180,2013-02-04 18:35:00
12:55 PM,77.4,64.6,65,29.89,10.0,South,15.0,19.6,N/A,,Mostly Cloudy,170,2013-02-04 18:55:00
1:15 PM,75.7,64.4,68,29.88,10.0,SSE,15.0,20.7,N/A,,Overcast,160,2013-02-04 19:15:00
1:35 PM,75.2,64.4,69,29.87,10.0,South,13.8,20.7,N/A,,Overcast,170,2013-02-04 19:35:00
1:55 PM,75.0,64.8,70,29.86,10.0,SSE,15.0,-,N/A,,Overcast,150,2013-02-04 19:55:00
2:15 PM,75.6,64.9,69,29.84,10.0,SSE,12.7,20.7,N/A,,Overcast,150,2013-02-04 20:15:00
2:35 PM,77.2,65.3,67,29.83,10.0,SSE,15.0,-,N/A,,Scattered Clouds,150,2013-02-04 20:35:00
2:55 PM,77.4,65.1,66,29.83,10.0,SSE,15.0,21.9,N/A,,Clear,150,2013-02-04 20:55:00
3:15 PM,77.4,64.9,65,29.82,10.0,SSE,13.8,20.7,N/A,,Clear,160,2013-02-04 21:15:00
3:35 PM,76.8,65.1,67,29.82,10.0,SSE,13.8,21.9,N/A,,Clear,160,2013-02-04 21:35:00
3:55 PM,76.5,65.3,68,29.81,10.0,SSE,15.0,-,N/A,,Clear,160,2013-02-04 21:55:00
4:15 PM,76.3,65.5,69,29.81,10.0,SSE,13.8,18.4,N/A,,Clear,160,2013-02-04 22:15:00
4:35 PM,75.6,65.5,71,29.81,10.0,SSE,16.1,-,N/A,,Clear,150,2013-02-04 22:35:00
4:55 PM,74.5,65.7,74,29.81,10.0,SSE,18.4,23.0,N/A,,Clear,150,2013-02-04 22:55:00
5:15 PM,73.9,65.7,75,29.81,10.0,SSE,17.3,20.7,N/A,,Clear,150,2013-02-04 23:15:00
5:35 PM,73.0,65.7,78,29.81,10.0,SE,13.8,-,N/A,,Clear,140,2013-02-04 23:35:00
5:55 PM,71.8,65.8,81,29.81,10.0,SSE,12.7,18.4,N/A,,Clear,150,2013-02-04 23:55:00
6:15 PM,70.2,65.7,86,29.82,10.0,SE,10.4,-,N/A,,Clear,140,2013-02-05 00:15:00
6:35 PM,69.3,65.5,88,29.83,10.0,SE,10.4,-,N/A,,Clear,140,2013-02-05 00:35:00
6:55 PM,68.7,65.5,89,29.83,10.0,SE,9.2,-,N/A,,Clear,140,2013-02-05 00:55:00
7:15 PM,68.5,65.7,90,29.84,10.0,SE,8.1,-,N/A,,Clear,140,2013-02-05 01:15:00
7:35 PM,68.4,65.7,91,29.85,10.0,SSE,6.9,-,N/A,,Clear,150,2013-02-05 01:35:00
7:55 PM,68.2,65.8,92,29.86,10.0,SSE,8.1,-,N/A,,Clear,150,2013-02-05 01:55:00
8:15 PM,68.2,65.8,92,29.86,10.0,SSE,8.1,-,N/A,,Clear,150,2013-02-05 02:15:00
8:55 PM,68.0,65.8,93,29.87,10.0,SSE,5.8,-,N/A,,Clear,150,2013-02-05 02:55:00
9:15 PM,67.5,65.5,93,29.87,10.0,SSE,6.9,-,N/A,,Clear,150,2013-02-05 03:15:00
9:35 PM,67.1,65.3,94,29.87,10.0,SE,8.1,-,N/A,,Clear,140,2013-02-05 03:35:00
9:55 PM,67.1,65.3,94,29.86,10.0,SE,10.4,-,N/A,,Clear,140,2013-02-05 03:55:00
10:15 PM,67.1,65.3,94,29.87,10.0,SSE,8.1,-,N/A,,Clear,150,2013-02-05 04:15:00
10:35 PM,67.1,65.3,94,29.88,10.0,SSE,6.9,-,N/A,,Clear,150,2013-02-05 04:35:00
10:55 PM,67.1,65.3,94,29.88,10.0,South,8.1,-,N/A,,Clear,170,2013-02-05 04:55:00
11:15 PM,67.1,65.3,94,29.88,10.0,South,8.1,-,N/A,,Clear,170,2013-02-05 05:15:00
11:35 PM,67.1,65.1,93,29.88,10.0,South,8.1,-,N/A,,Clear,170,2013-02-05 05:35:00
11:55 PM,66.7,64.8,93,29.88,10.0,South,6.9,-,N/A,,Clear,180,2013-02-05 05:55:00